Location: Drummondville
(45.8830°N, 72.4830°W)
Time: 01:38:50
(UTC-05:00)

Envisat - Pass Details

Date: 17 November 2017
Orbit: 764 x 766 km, 98.2° (Epoch: 20 November)

Event Time Altitude Azimuth Distance (km) Brightness Sun altitude
Exits shadow 18:24:24 12° 13° (NNE) 2,197 5.2 -22.1°
Drops below altitude 10° 18:24:46 10° 11° (N) 2,312 5.3 -22.2°
Sets 18:27:27 0° 358° (N) 3,242 6.2 -22.7°
